• In Uzbekistan
  • List of Countries
  • For 7 days
  • Water Temperature
  • Satellite Maps
  • Weather Map
  • Weather Widgets
  • user-avatar
    Login

    Hourly Weather Salzburg

    Today, 28 June, Wednesday

    Time Temperature Precipitation Wind Pressure Humidity
    00:00 +9°C° 0 mm 2 mps 622 mmHg 92%
    01:00 +9°C° 0 mm 2 mps 621 mmHg 91%
    02:00 +9°C° 0 mm 2 mps 621 mmHg 91%
    03:00 +9°C° 0 mm 2 mps 621 mmHg 91%
    04:00 +9°C° 0 mm 2 mps 620 mmHg 91%
    05:00 +10°C° 0 mm 2 mps 620 mmHg 88%
    06:00 +12°C° 0 mm 3 mps 621 mmHg 84%
    07:00 +14°C° 0 mm 3 mps 621 mmHg 78%
    08:00 +16°C° 0.4 mm 3 mps 622 mmHg 73%
    09:00 +17°C° 0.4 mm 3 mps 622 mmHg 68%
    10:00 +19°C° 0.4 mm 3 mps 622 mmHg 63%
    11:00 +19°C° 1 mm 3 mps 622 mmHg 63%
    12:00 +19°C° 1 mm 3 mps 622 mmHg 64%
    13:00 +18°C° 0 mm 2 mps 622 mmHg 67%
    14:00 +18°C° 0.8 mm 2 mps 622 mmHg 68%
    15:00 +18°C° 0.8 mm 2 mps 621 mmHg 69%
    16:00 +18°C° 0.8 mm 2 mps 621 mmHg 71%
    17:00 +16°C° 1.1 mm 2 mps 620 mmHg 78%
    18:00 +15°C° 1.1 mm 2 mps 619 mmHg 85%
    19:00 +14°C° 1.1 mm 2 mps 618 mmHg 92%
    20:00 +13°C° 0.7 mm 2 mps 618 mmHg 93%
    21:00 +12°C° 0.7 mm 2 mps 617 mmHg 94%
    22:00 +10°C° 0.7 mm 2 mps 617 mmHg 95%
    23:00 +10°C° 0.4 mm 2 mps 616 mmHg 95%

    Tomorrow, 29 June, Thursday

    Time Temperature Precipitation Wind Pressure Humidity
    00:00 +10°C° 0.4 mm 2 mps 616 mmHg 95%
    01:00 +9°C° 0.4 mm 2 mps 616 mmHg 96%
    02:00 +9°C° 1 mm 2 mps 616 mmHg 96%
    03:00 +9°C° 1 mm 2 mps 615 mmHg 97%
    04:00 +8°C° 1 mm 2 mps 615 mmHg 98%
    05:00 +9°C° 1.1 mm 2 mps 615 mmHg 97%
    06:00 +9°C° 1.1 mm 2 mps 616 mmHg 96%
    07:00 +9°C° 1.1 mm 2 mps 616 mmHg 95%
    08:00 +10°C° 0.5 mm 2 mps 617 mmHg 91%
    09:00 +10°C° 0.5 mm 2 mps 617 mmHg 88%
    10:00 +12°C° 0.5 mm 2 mps 618 mmHg 84%
    11:00 +12°C° 0.5 mm 2 mps 618 mmHg 84%
    12:00 +12°C° 0.5 mm 2 mps 618 mmHg 83%
    13:00 +12°C° 0.5 mm 2 mps 619 mmHg 82%
    14:00 +12°C° 0.5 mm 2 mps 619 mmHg 82%
    15:00 +13°C° 0.5 mm 2 mps 619 mmHg 82%
    16:00 +13°C° 0.5 mm 2 mps 619 mmHg 82%
    17:00 +12°C° 0.6 mm 2 mps 619 mmHg 85%
    18:00 +10°C° 0.6 mm 2 mps 619 mmHg 88%
    19:00 +10°C° 0.6 mm 2 mps 619 mmHg 91%
    20:00 +9°C° 1 mm 2 mps 619 mmHg 92%
    21:00 +8°C° 1 mm 2 mps 619 mmHg 94%
    22:00 +7°C° 1 mm 2 mps 620 mmHg 96%
    23:00 +7°C° 0.3 mm 2 mps 620 mmHg 96%

    Day after tomorrow, 30 June, Friday

    Time Temperature Precipitation Wind Pressure Humidity
    00:00 +7°C° 0.3 mm 1 mps 620 mmHg 95%
    01:00 +7°C° 0.3 mm 1 mps 620 mmHg 95%
    02:00 +7°C° 0.2 mm 1 mps 620 mmHg 95%
    03:00 +7°C° 0.2 mm 1 mps 620 mmHg 94%
    04:00 +6°C° 0.2 mm 1 mps 620 mmHg 93%
    05:00 +7°C° 0.4 mm 1 mps 620 mmHg 93%
    06:00 +7°C° 0.4 mm 1 mps 621 mmHg 92%
    07:00 +8°C° 0.4 mm 1 mps 621 mmHg 92%
    08:00 +8°C° 0.3 mm 2 mps 622 mmHg 86%
    09:00 +9°C° 0.3 mm 2 mps 622 mmHg 81%
    10:00 +10°C° 0.3 mm 2 mps 623 mmHg 76%
    11:00 +10°C° 0.6 mm 2 mps 623 mmHg 75%
    12:00 +12°C° 0.6 mm 2 mps 623 mmHg 73%
    13:00 +12°C° 0.6 mm 2 mps 624 mmHg 72%
    14:00 +12°C° 0.5 mm 2 mps 624 mmHg 72%
    15:00 +13°C° 0.5 mm 2 mps 624 mmHg 73%
    16:00 +13°C° 0.5 mm 2 mps 623 mmHg 73%
    17:00 +12°C° 0.6 mm 2 mps 623 mmHg 77%
    18:00 +11°C° 0.6 mm 1 mps 623 mmHg 82%
    19:00 +10°C° 0.6 mm 1 mps 623 mmHg 86%
    20:00 +9°C° 0.6 mm 1 mps 622 mmHg 89%
    21:00 +7°C° 0.6 mm 1 mps 622 mmHg 91%
    22:00 +6°C° 0.6 mm 1 mps 622 mmHg 94%
    23:00 +6°C° 0.5 mm 1 mps 622 mmHg 95%

    1 July, Saturday

    Time Temperature Precipitation Wind Pressure Humidity
    00:00 +5°C° 0.5 mm 1 mps 622 mmHg 95%
    01:00 +5°C° 0.5 mm 1 mps 621 mmHg 96%
    02:00 +5°C° 0.4 mm 1 mps 622 mmHg 96%
    03:00 +6°C° 0.4 mm 1 mps 622 mmHg 96%
    04:00 +6°C° 0.4 mm 1 mps 622 mmHg 96%
    05:00 +7°C° 0.2 mm 1 mps 623 mmHg 94%
    06:00 +7°C° 0.2 mm 1 mps 623 mmHg 93%
    07:00 +8°C° 0.2 mm 1 mps 624 mmHg 91%
    08:00 +10°C° 0.1 mm 1 mps 624 mmHg 83%
    09:00 +11°C° 0.1 mm 1 mps 625 mmHg 74%
    10:00 +13°C° 0.1 mm 1 mps 626 mmHg 66%
    11:00 +13°C° 0.3 mm 1 mps 626 mmHg 67%
    12:00 +14°C° 0.3 mm 2 mps 626 mmHg 67%
    13:00 +14°C° 0.3 mm 2 mps 626 mmHg 67%
    14:00 +13°C° 0.8 mm 2 mps 625 mmHg 73%
    15:00 +12°C° 0.8 mm 2 mps 625 mmHg 78%
    16:00 +12°C° 0.8 mm 2 mps 625 mmHg 83%
    17:00 +10°C° 1 mm 2 mps 625 mmHg 87%
    18:00 +10°C° 1 mm 1 mps 624 mmHg 91%
    19:00 +10°C° 1 mm 1 mps 624 mmHg 95%
    20:00 +9°C° 1 mm 1 mps 624 mmHg 95%
    21:00 +8°C° 1 mm 1 mps 625 mmHg 95%
    22:00 +8°C° 1 mm 1 mps 625 mmHg 96%
    23:00 +7°C° 0.3 mm 1 mps 625 mmHg 96%

    2 July, Sunday

    Time Temperature Precipitation Wind Pressure Humidity
    00:00 +7°C° 0.3 mm 1 mps 624 mmHg 96%
    01:00 +6°C° 0.3 mm 1 mps 624 mmHg 96%
    02:00 +6°C° 0.1 mm 1 mps 624 mmHg 96%
    03:00 +5°C° 0.1 mm 2 mps 624 mmHg 96%
    04:00 +5°C° 0.1 mm 2 mps 624 mmHg 96%
    05:00 +6°C° 0.5 mm 2 mps 625 mmHg 95%
    06:00 +6°C° 0.5 mm 2 mps 625 mmHg 95%
    07:00 +6°C° 0.5 mm 2 mps 626 mmHg 94%
    08:00 +7°C° 1 mm 2 mps 626 mmHg 93%
    09:00 +7°C° 1 mm 2 mps 626 mmHg 92%
    10:00 +7°C° 1 mm 2 mps 627 mmHg 91%
    11:00 +7°C° 0.7 mm 2 mps 627 mmHg 90%
    12:00 +8°C° 0.7 mm 2 mps 627 mmHg 88%
    13:00 +8°C° 0.7 mm 2 mps 628 mmHg 87%
    14:00 +8°C° 0.4 mm 2 mps 628 mmHg 87%
    15:00 +8°C° 0.4 mm 2 mps 628 mmHg 87%
    16:00 +8°C° 0.4 mm 2 mps 628 mmHg 87%
    17:00 +8°C° 0.2 mm 2 mps 628 mmHg 88%
    18:00 +7°C° 0.2 mm 2 mps 628 mmHg 89%
    19:00 +7°C° 0.2 mm 2 mps 628 mmHg 91%
    20:00 +6°C° 0.1 mm 2 mps 628 mmHg 92%
    21:00 +6°C° 0.1 mm 2 mps 629 mmHg 94%
    22:00 +5°C° 0.1 mm 2 mps 629 mmHg 95%
    23:00 +5°C° 0.2 mm 2 mps 629 mmHg 95%

    3 July, Monday

    Time Temperature Precipitation Wind Pressure Humidity
    00:00 +5°C° 0.2 mm 2 mps 629 mmHg 94%
    01:00 +5°C° 0.2 mm 2 mps 629 mmHg 94%
    02:00 +5°C° 0.4 mm 2 mps 629 mmHg 94%
    03:00 +5°C° 0.4 mm 2 mps 628 mmHg 94%
    04:00 +5°C° 0.4 mm 2 mps 628 mmHg 94%
    05:00 +6°C° 0.5 mm 2 mps 629 mmHg 93%
    06:00 +6°C° 0.5 mm 2 mps 629 mmHg 92%
    07:00 +7°C° 0.5 mm 2 mps 629 mmHg 92%
    08:00 +8°C° 0.2 mm 2 mps 630 mmHg 88%
    09:00 +9°C° 0.2 mm 2 mps 630 mmHg 84%
    10:00 +10°C° 0.2 mm 2 mps 630 mmHg 81%
    11:00 +13°C° 0.2 mm 2 mps 630 mmHg 76%
    12:00 +14°C° 0.2 mm 2 mps 631 mmHg 71%
    13:00 +15°C° 0.2 mm 2 mps 631 mmHg 66%
    14:00 +14°C° 0.3 mm 2 mps 631 mmHg 69%
    15:00 +14°C° 0.3 mm 2 mps 630 mmHg 72%
    16:00 +14°C° 0.3 mm 2 mps 630 mmHg 75%
    17:00 +13°C° 0.2 mm 2 mps 630 mmHg 81%
    18:00 +12°C° 0.2 mm 2 mps 630 mmHg 86%
    19:00 +11°C° 0.2 mm 1 mps 630 mmHg 92%
    20:00 +10°C° 0.3 mm 1 mps 629 mmHg 93%
    21:00 +9°C° 0.3 mm 1 mps 629 mmHg 95%
    22:00 +8°C° 0.3 mm 1 mps 629 mmHg 97%
    23:00 +8°C° 0.3 mm 1 mps 629 mmHg 97%
    Show more